User: anonymous   Login
Location: Unspecified
(0.0000°N, 0.0000°E)
Time: 17:06:25
(UTC+00:00)
Language:

Sedsat-1 - Orbit

View from above orbital plane
View from above orbital plane
View from above satellite
View from above satellite

Ground track
Ground track

The orbit data is extracted from the following two-line orbital elements,

1 25509U 98061B   17265.21110086  .00000100  00000-0  75938-5 0  9993
2 25509  31.4309 235.0520 0346692 135.3378 227.5720 14.30296845988046
Epoch (UTC): 22 September 2017 05:03:59
Eccentricity: 0.0346692
inclination: 31.4309°
perigee height: 542 km
apogee height: 1039 km
right ascension of ascending node: 235.0520°
argument of perigee: 135.3378°
revolutions per day: 14.30296845
mean anomaly at epoch: 227.5720°
orbit number at epoch: 98804

The dashed part of the orbit path shows where the satellite is in the earth's shadow,  

DLR